TimeCST,TemperatureF,Dew PointF,Humidity,Sea Level PressureIn,VisibilityMPH,Wind Direction,Wind SpeedMPH,Gust SpeedMPH,PrecipitationIn,Events,Conditions,WindDirDegrees,DateUTC
12:53 AM,-18.0,-25.1,70,30.23,6.0,NW,18.4,-,0.00,,Haze,320,2014-01-27 06:53:00
1:53 AM,-18.9,-27.0,66,30.26,10.0,NW,16.1,-,N/A,,Clear,320,2014-01-27 07:53:00
2:53 AM,-20.9,-27.0,73,30.29,10.0,NW,15.0,-,N/A,,Clear,310,2014-01-27 08:53:00
3:53 AM,-20.9,-27.9,70,30.32,10.0,NW,16.1,-,N/A,,Clear,310,2014-01-27 09:53:00
4:53 AM,-20.9,-27.9,70,30.34,8.0,NW,16.1,-,N/A,,Clear,320,2014-01-27 10:53:00
5:53 AM,-22.0,-29.0,70,30.37,10.0,NW,13.8,-,N/A,,Clear,320,2014-01-27 11:53:00
6:53 AM,-24.0,-29.9,74,30.39,10.0,NW,15.0,-,N/A,,Clear,310,2014-01-27 12:53:00
7:53 AM,-24.0,-29.0,77,30.42,10.0,WNW,15.0,-,N/A,,Clear,300,2014-01-27 13:53:00
8:53 AM,-23.1,-29.0,74,30.44,10.0,WNW,13.8,-,N/A,,Clear,290,2014-01-27 14:53:00
9:53 AM,-20.9,-27.0,73,30.45,10.0,WNW,13.8,-,N/A,,Clear,300,2014-01-27 15:53:00
10:53 AM,-18.0,-25.1,70,30.46,10.0,WNW,15.0,-,N/A,,Clear,300,2014-01-27 16:53:00
11:53 AM,-16.1,-24.0,67,30.46,10.0,WNW,16.1,-,N/A,,Clear,290,2014-01-27 17:53:00
12:53 PM,-14.1,-22.0,68,30.45,10.0,West,12.7,-,N/A,,Clear,280,2014-01-27 18:53:00
1:53 PM,-11.9,-20.9,64,30.45,10.0,West,16.1,-,N/A,,Clear,280,2014-01-27 19:53:00
2:53 PM,-13.0,-20.9,68,30.44,10.0,West,16.1,-,N/A,,Clear,270,2014-01-27 20:53:00
3:53 PM,-13.0,-22.0,64,30.45,10.0,WNW,15.0,-,N/A,,Clear,290,2014-01-27 21:53:00
4:53 PM,-15.0,-24.0,64,30.45,10.0,WNW,16.1,-,N/A,,Clear,290,2014-01-27 22:53:00
5:53 PM,-17.0,-24.0,70,30.47,10.0,WNW,10.4,-,N/A,,Clear,290,2014-01-27 23:53:00
6:53 PM,-22.0,-27.0,77,30.48,10.0,West,5.8,-,N/A,,Clear,270,2014-01-28 00:53:00
7:53 PM,-23.1,-27.9,78,30.46,10.0,West,3.5,-,N/A,,Clear,260,2014-01-28 01:53:00
8:53 PM,-26.0,-29.9,81,30.45,10.0,West,6.9,-,N/A,,Clear,270,2014-01-28 02:53:00
9:53 PM,-24.0,-27.0,86,30.43,10.0,West,8.1,-,N/A,,Clear,280,2014-01-28 03:53:00
10:53 PM,-25.1,-29.9,78,30.41,10.0,WNW,5.8,-,N/A,,Clear,290,2014-01-28 04:53:00
11:53 PM,-20.0,-24.0,82,30.40,10.0,WNW,5.8,-,N/A,,Clear,290,2014-01-28 05:53:00